DRK202 VQPR-VIDP

Flight info

Callsign DRK202
Flight time 1h 50m
Altitude 38000
Route PRO DCT SUBSU DCT TUMLI B345 NARAN W17 TULVI Q319 NGJ DCT BRL/N0382F240 V94 PUMOT PUMOT7G
Aircraft A319/M-SDE3FGHIRWY/LB1

Departure

Time 2026-04-28 09:57
Airport Paro International Airport (VQPR)

Arrival

Time 2026-04-28 11:47
Airport Indira Gandhi International Airport (VIDP)
Time Latitude Longitude Altitude Speed Heading
2026-04-28 09:29 27.40630 89.42103 7356 ft 0 kts 240°
2026-04-28 09:48 27.40633 89.42109 7356 ft 4 kts 242°
2026-04-28 09:48 27.40642 89.42137 7359 ft 4 kts 267°
2026-04-28 09:48 27.40638 89.42164 7358 ft 4 kts 311°
2026-04-28 09:49 27.40629 89.42173 7356 ft 1 kts 329°
2026-04-28 09:52 27.40631 89.42172 7356 ft 2 kts 329°
2026-04-28 09:52 27.40660 89.42168 7357 ft 7 kts 21°
2026-04-28 09:52 27.40710 89.42216 7359 ft 12 kts
2026-04-28 09:52 27.40799 89.42168 7361 ft 17 kts 330°
2026-04-28 09:53 27.40901 89.42103 7364 ft 16 kts 330°
2026-04-28 09:53 27.40995 89.42043 7369 ft 15 kts 330°
2026-04-28 09:53 27.41083 89.41987 7369 ft 14 kts 330°
2026-04-28 09:53 27.41164 89.41930 7371 ft 12 kts 314°
2026-04-28 09:54 27.41194 89.41905 7372 ft 1 kts 57°
2026-04-28 09:54 27.41179 89.41926 7371 ft 6 kts 139°
2026-04-28 09:54 27.41168 89.41934 7371 ft 0 kts 149°
2026-04-28 09:56 27.41167 89.41934 7371 ft 1 kts 149°
2026-04-28 09:56 27.41145 89.41949 7371 ft 10 kts 149°
2026-04-28 09:56 27.40920 89.42094 7365 ft 71 kts 150°
2026-04-28 09:56 27.40305 89.42485 7344 ft 130 kts 150°
2026-04-28 09:57 27.39453 89.43022 7769 ft 142 kts 152°
2026-04-28 09:57 27.38600 89.43587 8391 ft 144 kts 144°
2026-04-28 09:57 27.37975 89.44504 8802 ft 154 kts 114°
2026-04-28 09:57 27.37354 89.45463 9281 ft 156 kts 146°
2026-04-28 09:58 27.36332 89.45864 9846 ft 154 kts 165°
2026-04-28 09:58 27.35321 89.46166 10305 ft 152 kts 159°
2026-04-28 09:58 27.34491 89.46873 10608 ft 157 kts 123°
2026-04-28 09:58 27.33982 89.47986 10936 ft 163 kts 114°
2026-04-28 09:59 27.33763 89.49254 11355 ft 167 kts 97°
2026-04-28 09:59 27.33651 89.50569 11785 ft 173 kts 100°
2026-04-28 09:59 27.33354 89.51935 12071 ft 189 kts 110°
2026-04-28 09:59 27.32709 89.53261 12413 ft 199 kts 136°
2026-04-28 10:00 27.31500 89.53994 12897 ft 203 kts 169°
2026-04-28 10:00 27.30112 89.53851 13392 ft 208 kts 202°
2026-04-28 10:00 27.28959 89.52860 13869 ft 216 kts 229°
2026-04-28 10:00 27.28131 89.51358 14046 ft 238 kts 243°
2026-04-28 10:01 27.27406 89.49573 14204 ft 265 kts 246°
2026-04-28 10:01 27.26645 89.47580 14482 ft 289 kts 244°
2026-04-28 10:01 27.25715 89.45479 14754 ft 313 kts 242°
2026-04-28 10:01 27.24660 89.43240 14975 ft 336 kts 241°
2026-04-28 10:02 27.23524 89.40866 15406 ft 350 kts 242°
2026-04-28 10:02 27.22368 89.38441 16061 ft 354 kts 242°
2026-04-28 10:02 27.21223 89.36014 16708 ft 358 kts 242°
2026-04-28 10:02 27.20060 89.33528 17376 ft 361 kts 243°
2026-04-28 10:03 27.18895 89.31017 18047 ft 365 kts 243°
2026-04-28 10:03 27.17722 89.28471 18661 ft 368 kts 243°
2026-04-28 10:03 27.16547 89.25912 19251 ft 371 kts 243°
2026-04-28 10:03 27.15363 89.23335 19895 ft 372 kts 244°
2026-04-28 10:04 27.14171 89.20744 20510 ft 376 kts 244°
2026-04-28 10:04 27.12960 89.18129 21138 ft 378 kts 243°
2026-04-28 10:04 27.11751 89.15534 21716 ft 382 kts 243°
2026-04-28 10:04 27.10516 89.12883 22254 ft 385 kts 243°
2026-04-28 10:05 27.09272 89.10213 22787 ft 388 kts 244°
2026-04-28 10:05 27.08022 89.07521 23379 ft 391 kts 244°
2026-04-28 10:05 27.06761 89.04799 23861 ft 394 kts 244°
2026-04-28 10:05 27.05490 89.02058 24348 ft 397 kts 244°
2026-04-28 10:06 27.04209 88.99302 24815 ft 400 kts 244°
2026-04-28 10:06 27.02920 88.96533 25291 ft 402 kts 244°
2026-04-28 10:06 27.01620 88.93743 25749 ft 405 kts 244°
2026-04-28 10:06 27.00333 88.90928 26169 ft 407 kts 248°
2026-04-28 10:07 26.99413 88.87937 26621 ft 407 kts 258°
2026-04-28 10:07 26.99037 88.84800 27071 ft 407 kts 269°
2026-04-28 10:07 26.99217 88.81627 27537 ft 409 kts 280°
2026-04-28 10:07 26.99827 88.78506 28010 ft 410 kts 283°
2026-04-28 10:08 27.00465 88.75424 28480 ft 412 kts 283°
2026-04-28 10:08 27.01111 88.72294 28933 ft 414 kts 283°
2026-04-28 10:08 27.01759 88.69140 29387 ft 416 kts 283°
2026-04-28 10:08 27.02409 88.65969 29843 ft 418 kts 283°
2026-04-28 10:09 27.03064 88.62781 30243 ft 420 kts 283°
2026-04-28 10:09 27.03717 88.59585 30600 ft 422 kts 283°
2026-04-28 10:09 27.04372 88.56364 30962 ft 425 kts 283°
2026-04-28 10:09 27.05033 88.53120 31322 ft 427 kts 283°
2026-04-28 10:10 27.05695 88.49866 31690 ft 428 kts 284°
2026-04-28 10:10 27.06356 88.46625 32171 ft 426 kts 284°
2026-04-28 10:10 27.07008 88.43424 32663 ft 425 kts 284°
2026-04-28 10:10 27.07662 88.40200 33184 ft 423 kts 284°
2026-04-28 10:11 27.08314 88.36990 33702 ft 422 kts 284°
2026-04-28 10:11 27.08967 88.33784 34159 ft 420 kts 284°
2026-04-28 10:11 27.09615 88.30592 34581 ft 420 kts 284°
2026-04-28 10:11 27.10261 88.27401 35017 ft 419 kts 284°
2026-04-28 10:12 27.10903 88.24217 35429 ft 417 kts 284°
2026-04-28 10:12 27.11533 88.21087 35807 ft 417 kts 283°
2026-04-28 10:12 27.12171 88.17920 36167 ft 416 kts 283°
2026-04-28 10:12 27.12808 88.14753 36552 ft 415 kts 283°
2026-04-28 10:13 27.13443 88.11601 36911 ft 414 kts 283°
2026-04-28 10:13 27.14079 88.08450 37248 ft 413 kts 283°
2026-04-28 10:13 27.14713 88.05305 37576 ft 412 kts 283°
2026-04-28 10:13 27.15342 88.02172 37861 ft 413 kts 283°
2026-04-28 10:14 27.16598 87.95910 37901 ft 409 kts 282°
2026-04-28 10:14 27.17837 87.89723 37902 ft 409 kts 282°
2026-04-28 10:15 27.19077 87.83489 37889 ft 409 kts 282°
2026-04-28 10:15 27.20304 87.77258 37893 ft 408 kts 282°
2026-04-28 10:16 27.21542 87.71035 37934 ft 408 kts 282°
2026-04-28 10:16 27.22772 87.64810 37903 ft 408 kts 282°
2026-04-28 10:17 27.23993 87.58619 37903 ft 409 kts 282°
2026-04-28 10:17 27.25221 87.52387 37875 ft 409 kts 282°
2026-04-28 10:18 27.26448 87.46144 37882 ft 409 kts 282°
2026-04-28 10:18 27.27671 87.39910 37883 ft 409 kts 282°
2026-04-28 10:19 27.28882 87.33712 37880 ft 409 kts 282°
2026-04-28 10:19 27.30100 87.27461 37871 ft 410 kts 282°
2026-04-28 10:20 27.31311 87.21193 37869 ft 411 kts 282°
2026-04-28 10:20 27.32538 87.14913 37910 ft 411 kts 282°
2026-04-28 10:21 27.33779 87.08672 37918 ft 411 kts 282°
2026-04-28 10:21 27.35025 87.02388 37924 ft 411 kts 282°
2026-04-28 10:22 27.36265 86.96099 37918 ft 412 kts 282°
2026-04-28 10:22 27.37497 86.89805 37932 ft 413 kts 282°
2026-04-28 10:23 27.38727 86.83493 37920 ft 412 kts 282°
2026-04-28 10:23 27.39944 86.77231 37931 ft 413 kts 282°
2026-04-28 10:24 27.41172 86.70920 37923 ft 413 kts 282°
2026-04-28 10:24 27.42394 86.64603 37927 ft 412 kts 282°
2026-04-28 10:25 27.43614 86.58294 37990 ft 412 kts 282°
2026-04-28 10:25 27.44835 86.51996 37966 ft 412 kts 282°
2026-04-28 10:26 27.46043 86.45731 37938 ft 412 kts 282°
2026-04-28 10:26 27.47253 86.39429 37936 ft 412 kts 282°
2026-04-28 10:27 27.48460 86.33115 37895 ft 412 kts 282°
2026-04-28 10:27 27.49662 86.26797 37913 ft 412 kts 282°
2026-04-28 10:28 27.50876 86.20541 37911 ft 412 kts 282°
2026-04-28 10:29 27.52739 86.11091 37876 ft 412 kts 282°
2026-04-28 10:29 27.53960 86.04781 37911 ft 413 kts 283°
2026-04-28 10:30 27.55187 85.98468 37911 ft 412 kts 283°
2026-04-28 10:30 27.56410 85.92156 37913 ft 412 kts 282°
2026-04-28 10:31 27.57622 85.85877 37893 ft 413 kts 282°
2026-04-28 10:31 27.58836 85.79557 37893 ft 412 kts 282°
2026-04-28 10:32 27.60042 85.73243 37895 ft 413 kts 282°
2026-04-28 10:32 27.61255 85.66918 37877 ft 412 kts 282°
2026-04-28 10:33 27.62469 85.60598 37868 ft 412 kts 282°
2026-04-28 10:33 27.63673 85.54320 37862 ft 412 kts 282°
2026-04-28 10:34 27.64877 85.47994 37865 ft 413 kts 282°
2026-04-28 10:34 27.66072 85.41664 37863 ft 413 kts 282°
2026-04-28 10:35 27.67222 85.35318 37855 ft 413 kts 277°
2026-04-28 10:35 27.67422 85.28841 37866 ft 414 kts 271°
2026-04-28 10:36 27.67472 85.22387 37850 ft 414 kts 271°
2026-04-28 10:36 27.67522 85.15877 37849 ft 415 kts 271°
2026-04-28 10:37 27.67578 85.09373 37816 ft 415 kts 271°
2026-04-28 10:37 27.67635 85.02861 37822 ft 415 kts 271°
2026-04-28 10:38 27.67679 84.96389 37781 ft 415 kts 271°
2026-04-28 10:38 27.67719 84.89876 37795 ft 416 kts 271°
2026-04-28 10:39 27.67759 84.83350 37800 ft 416 kts 271°
2026-04-28 10:39 27.67797 84.76822 37776 ft 416 kts 271°
2026-04-28 10:40 27.67828 84.70340 37781 ft 416 kts 271°
2026-04-28 10:40 27.67856 84.63819 37749 ft 416 kts 271°
2026-04-28 10:41 27.67882 84.57294 37744 ft 417 kts 271°
2026-04-28 10:41 27.67913 84.50749 37721 ft 417 kts 271°
2026-04-28 10:42 27.67954 84.44211 37714 ft 417 kts 274°
2026-04-28 10:42 27.68947 84.37790 37710 ft 416 kts 282°
2026-04-28 10:43 27.70165 84.31454 37704 ft 416 kts 282°
2026-04-28 10:43 27.71371 84.25062 37700 ft 417 kts 282°
2026-04-28 10:44 27.72588 84.18663 37704 ft 417 kts 282°
2026-04-28 10:44 27.73806 84.12254 37700 ft 418 kts 282°
2026-04-28 10:45 27.75023 84.05836 37690 ft 418 kts 282°
2026-04-28 10:45 27.76229 83.99467 37699 ft 418 kts 282°
2026-04-28 10:46 27.77440 83.93053 37702 ft 418 kts 282°
2026-04-28 10:46 27.78651 83.86621 37690 ft 419 kts 282°
2026-04-28 10:47 27.79849 83.80226 37685 ft 419 kts 282°
2026-04-28 10:47 27.81051 83.73780 37683 ft 419 kts 282°
2026-04-28 10:48 27.82251 83.67340 37702 ft 419 kts 282°
2026-04-28 10:48 27.83504 83.60912 37694 ft 419 kts 283°
2026-04-28 10:49 27.84812 83.54482 37702 ft 419 kts 283°
2026-04-28 10:49 27.86104 83.48062 37699 ft 420 kts 283°
2026-04-28 10:50 27.87372 83.41665 37700 ft 420 kts 283°
2026-04-28 10:50 27.88637 83.35230 37700 ft 420 kts 283°
2026-04-28 10:51 27.89906 83.28781 37694 ft 420 kts 283°
2026-04-28 10:51 27.91180 83.22343 37726 ft 420 kts 283°
2026-04-28 10:52 27.92453 83.15907 37740 ft 419 kts 283°
2026-04-28 10:52 27.93701 83.09510 37710 ft 419 kts 283°
2026-04-28 10:53 27.94947 83.03062 37704 ft 420 kts 283°
2026-04-28 10:53 27.96240 82.96624 37700 ft 420 kts 284°
2026-04-28 10:54 27.97680 82.90225 37703 ft 420 kts 285°
2026-04-28 10:54 27.99142 82.83869 37678 ft 420 kts 285°
2026-04-28 10:55 28.00579 82.77460 37672 ft 420 kts 284°
2026-04-28 10:55 28.01993 82.71054 37675 ft 420 kts 284°
2026-04-28 10:56 28.03404 82.64639 37676 ft 420 kts 284°
2026-04-28 10:56 28.04813 82.58227 37668 ft 420 kts 284°
2026-04-28 10:57 28.06211 82.51858 37656 ft 420 kts 284°
2026-04-28 10:57 28.07616 82.45438 37663 ft 420 kts 284°
2026-04-28 10:58 28.09014 82.39020 37638 ft 420 kts 284°
2026-04-28 10:58 28.10416 82.32603 37668 ft 420 kts 284°
2026-04-28 10:59 28.11124 82.26072 37665 ft 419 kts 269°
2026-04-28 10:59 28.11028 82.19511 37675 ft 419 kts 270°
2026-04-28 11:00 28.10933 82.12904 37675 ft 420 kts 269°
2026-04-28 11:00 28.10830 82.06298 37646 ft 419 kts 269°
2026-04-28 11:01 28.10726 81.99690 37650 ft 419 kts 269°
2026-04-28 11:01 28.10618 81.93130 37638 ft 419 kts 269°
2026-04-28 11:02 28.10513 81.86529 37630 ft 419 kts 269°
2026-04-28 11:02 28.10399 81.79926 37622 ft 419 kts 269°
2026-04-28 11:03 28.10287 81.73325 37620 ft 419 kts 269°
2026-04-28 11:03 28.10173 81.66771 37623 ft 419 kts 270°
2026-04-28 11:04 28.10872 81.60240 37610 ft 418 kts 279°
2026-04-28 11:04 28.11859 81.53753 37617 ft 418 kts 279°
2026-04-28 11:05 28.12843 81.47254 37616 ft 418 kts 279°
2026-04-28 11:05 28.13821 81.40759 37617 ft 418 kts 279°
2026-04-28 11:06 28.14784 81.34311 37623 ft 418 kts 279°
2026-04-28 11:06 28.15760 81.27809 37621 ft 418 kts 279°
2026-04-28 11:07 28.16733 81.21319 37612 ft 418 kts 279°
2026-04-28 11:07 28.17694 81.14820 37624 ft 418 kts 279°
2026-04-28 11:08 28.18656 81.08333 37627 ft 417 kts 279°
2026-04-28 11:08 28.19610 81.01892 37624 ft 417 kts 279°
2026-04-28 11:09 28.20564 80.95406 37620 ft 417 kts 279°
2026-04-28 11:09 28.21509 80.88920 37634 ft 417 kts 279°
2026-04-28 11:10 28.22457 80.82445 37628 ft 416 kts 279°
2026-04-28 11:10 28.23395 80.76014 37634 ft 416 kts 279°
2026-04-28 11:11 28.24335 80.69536 37624 ft 416 kts 279°
2026-04-28 11:11 28.25272 80.63054 37618 ft 416 kts 279°
2026-04-28 11:12 28.26209 80.56571 37624 ft 416 kts 279°
2026-04-28 11:12 28.27141 80.50095 37618 ft 416 kts 279°
2026-04-28 11:13 28.28057 80.43657 37636 ft 416 kts 279°
2026-04-28 11:13 28.28985 80.37168 37625 ft 416 kts 279°
2026-04-28 11:14 28.29912 80.30681 37640 ft 416 kts 279°
2026-04-28 11:14 28.30825 80.24196 37638 ft 416 kts 279°
2026-04-28 11:15 28.31734 80.17757 37636 ft 416 kts 279°
2026-04-28 11:15 28.32646 80.11268 37649 ft 416 kts 279°
2026-04-28 11:16 28.33555 80.04776 37648 ft 416 kts 279°
2026-04-28 11:16 28.34458 79.98327 37653 ft 416 kts 279°
2026-04-28 11:17 28.35361 79.91841 37651 ft 416 kts 279°
2026-04-28 11:17 28.36265 79.85362 37648 ft 416 kts 279°
2026-04-28 11:18 28.37166 79.78871 37654 ft 416 kts 278°
2026-04-28 11:18 28.38055 79.72385 37652 ft 415 kts 278°
2026-04-28 11:19 28.38935 79.65952 37651 ft 415 kts 278°
2026-04-28 11:19 28.39813 79.59480 37650 ft 415 kts 278°
2026-04-28 11:20 28.40695 79.53009 37653 ft 414 kts 278°
2026-04-28 11:20 28.41573 79.46543 37650 ft 414 kts 278°
2026-04-28 11:21 28.42249 79.40048 37654 ft 414 kts 275°
2026-04-28 11:21 28.42677 79.33587 37652 ft 413 kts 274°
2026-04-28 11:21 28.42879 79.30328 37295 ft 414 kts 274°
2026-04-28 11:22 28.43098 79.27011 36112 ft 428 kts 274°
2026-04-28 11:22 28.43336 79.23657 35801 ft 421 kts 275°
2026-04-28 11:22 28.43578 79.20383 35516 ft 413 kts 275°
2026-04-28 11:22 28.43823 79.17141 35033 ft 411 kts 275°
2026-04-28 11:23 28.44067 79.13913 34550 ft 409 kts 275°
2026-04-28 11:23 28.44308 79.10691 34066 ft 408 kts 275°
2026-04-28 11:23 28.44546 79.07486 33571 ft 407 kts 274°
2026-04-28 11:23 28.44778 79.04333 33060 ft 405 kts 274°
2026-04-28 11:24 28.45010 79.01156 32583 ft 402 kts 274°
2026-04-28 11:24 28.45241 78.98001 32114 ft 399 kts 274°
2026-04-28 11:24 28.45470 78.94868 31641 ft 397 kts 274°
2026-04-28 11:24 28.45695 78.91753 31184 ft 394 kts 274°
2026-04-28 11:25 28.45918 78.88659 30723 ft 392 kts 274°
2026-04-28 11:25 28.46137 78.85576 30279 ft 390 kts 274°
2026-04-28 11:25 28.46354 78.82509 29671 ft 390 kts 273°
2026-04-28 11:25 28.46576 78.79413 28535 ft 396 kts 274°
2026-04-28 11:26 28.46798 78.76322 27459 ft 398 kts 274°
2026-04-28 11:26 28.47036 78.73203 26660 ft 394 kts 274°
2026-04-28 11:26 28.47284 78.70128 25935 ft 388 kts 275°
2026-04-28 11:26 28.47532 78.67090 25222 ft 384 kts 275°
2026-04-28 11:27 28.47774 78.64091 24543 ft 379 kts 275°
2026-04-28 11:27 28.48012 78.61122 23879 ft 375 kts 275°
2026-04-28 11:27 28.48244 78.58180 23207 ft 372 kts 275°
2026-04-28 11:27 28.48471 78.55281 22802 ft 363 kts 275°
2026-04-28 11:28 28.48685 78.52494 22542 ft 355 kts 275°
2026-04-28 11:28 28.48897 78.49731 22282 ft 347 kts 275°
2026-04-28 11:28 28.49104 78.47033 22024 ft 340 kts 275°
2026-04-28 11:28 28.49309 78.44364 21767 ft 337 kts 275°
2026-04-28 11:29 28.49511 78.41728 21514 ft 334 kts 275°
2026-04-28 11:29 28.49713 78.39104 21267 ft 332 kts 275°
2026-04-28 11:29 28.49912 78.36494 21019 ft 330 kts 275°
2026-04-28 11:29 28.50108 78.33902 20774 ft 328 kts 275°
2026-04-28 11:30 28.50304 78.31326 20531 ft 326 kts 275°
2026-04-28 11:30 28.50692 78.26250 20053 ft 323 kts 275°
2026-04-28 11:30 28.50884 78.23719 19823 ft 320 kts 275°
2026-04-28 11:31 28.51074 78.21221 19522 ft 316 kts 275°
2026-04-28 11:31 28.51261 78.18740 19145 ft 315 kts 275°
2026-04-28 11:31 28.51447 78.16266 18775 ft 314 kts 275°
2026-04-28 11:31 28.51630 78.13787 18390 ft 314 kts 275°
2026-04-28 11:32 28.51814 78.11321 18007 ft 313 kts 275°
2026-04-28 11:32 28.51999 78.08855 17588 ft 313 kts 275°
2026-04-28 11:32 28.52180 78.06431 17214 ft 311 kts 275°
2026-04-28 11:32 28.52362 78.03994 16844 ft 309 kts 275°
2026-04-28 11:33 28.52543 78.01581 16611 ft 303 kts 275°
2026-04-28 11:33 28.52718 77.99231 16483 ft 294 kts 275°
2026-04-28 11:33 28.52825 77.96949 16357 ft 286 kts 268°
2026-04-28 11:33 28.52555 77.94744 16176 ft 277 kts 262°
2026-04-28 11:34 28.52245 77.92598 15764 ft 274 kts 262°
2026-04-28 11:34 28.51942 77.90467 15315 ft 272 kts 262°
2026-04-28 11:34 28.51646 77.88381 14875 ft 270 kts 262°
2026-04-28 11:34 28.51347 77.86282 14441 ft 268 kts 262°
2026-04-28 11:35 28.51050 77.84198 14015 ft 266 kts 262°
2026-04-28 11:35 28.50753 77.82129 13597 ft 264 kts 262°
2026-04-28 11:35 28.50457 77.80077 13148 ft 262 kts 262°
2026-04-28 11:35 28.50165 77.78040 12676 ft 260 kts 262°
2026-04-28 11:36 28.49877 77.76018 12203 ft 258 kts 262°
2026-04-28 11:36 28.49589 77.74011 11733 ft 257 kts 262°
2026-04-28 11:36 28.49299 77.72015 11269 ft 255 kts 262°
2026-04-28 11:36 28.49016 77.70054 10811 ft 254 kts 262°
2026-04-28 11:37 28.48733 77.68081 10347 ft 252 kts 262°
2026-04-28 11:37 28.48455 77.66118 9876 ft 251 kts 262°
2026-04-28 11:37 28.48177 77.64166 9410 ft 250 kts 261°
2026-04-28 11:37 28.47896 77.62217 8885 ft 249 kts 261°
2026-04-28 11:38 28.47616 77.60291 8539 ft 242 kts 261°
2026-04-28 11:38 28.47348 77.58465 8477 ft 229 kts 261°
2026-04-28 11:38 28.47094 77.56728 8394 ft 217 kts 261°
2026-04-28 11:38 28.46853 77.55075 8310 ft 206 kts 261°
2026-04-28 11:39 28.46628 77.53516 8220 ft 201 kts 261°
2026-04-28 11:39 28.46567 77.51966 8117 ft 194 kts 277°
2026-04-28 11:39 28.46804 77.50444 7811 ft 196 kts 279°
2026-04-28 11:39 28.47044 77.48918 7521 ft 196 kts 279°
2026-04-28 11:40 28.47282 77.47394 7239 ft 196 kts 279°
2026-04-28 11:40 28.47521 77.45870 6955 ft 195 kts 279°
2026-04-28 11:40 28.47758 77.44352 6674 ft 195 kts 279°
2026-04-28 11:40 28.47993 77.42848 6448 ft 189 kts 279°
2026-04-28 11:41 28.48216 77.41415 6352 ft 186 kts 278°
2026-04-28 11:41 28.48441 77.39970 6159 ft 186 kts 279°
2026-04-28 11:41 28.48665 77.38524 5918 ft 185 kts 279°
2026-04-28 11:41 28.48886 77.37090 5651 ft 184 kts 278°
2026-04-28 11:42 28.49107 77.35659 5389 ft 184 kts 278°
2026-04-28 11:42 28.49328 77.34228 5128 ft 183 kts 278°
2026-04-28 11:42 28.49548 77.32803 4867 ft 183 kts 279°
2026-04-28 11:42 28.49694 77.31862 4696 ft 182 kts 279°
2026-04-28 11:43 28.49915 77.30447 4436 ft 181 kts 280°
2026-04-28 11:43 28.50192 77.29059 4167 ft 180 kts 283°
2026-04-28 11:43 28.50591 77.27236 3832 ft 178 kts 283°
2026-04-28 11:43 28.50887 77.25896 3579 ft 171 kts 283°
2026-04-28 11:44 28.51170 77.24613 3338 ft 165 kts 283°
2026-04-28 11:44 28.51446 77.23353 3114 ft 163 kts 284°
2026-04-28 11:44 28.51626 77.22525 2952 ft 163 kts 284°
2026-04-28 11:44 28.51903 77.21255 2663 ft 167 kts 285°
2026-04-28 11:45 28.52182 77.19970 2425 ft 168 kts 285°
2026-04-28 11:45 28.52457 77.18695 2208 ft 162 kts 284°
2026-04-28 11:45 28.52718 77.17485 2007 ft 155 kts 285°
2026-04-28 11:45 28.52969 77.16321 1814 ft 149 kts 285°
2026-04-28 11:46 28.53210 77.15202 1636 ft 143 kts 285°
2026-04-28 11:46 28.53442 77.14123 1469 ft 140 kts 285°
2026-04-28 11:46 28.53677 77.13028 1302 ft 143 kts 286°
2026-04-28 11:46 28.53917 77.11932 1077 ft 146 kts 287°
2026-04-28 11:47 28.54154 77.10818 856 ft 145 kts 287°
2026-04-28 11:47 28.54388 77.09753 750 ft 128 kts 285°
2026-04-28 11:47 28.54556 77.08951 750 ft 79 kts 284°
2026-04-28 11:47 28.54654 77.08533 751 ft 37 kts 291°
2026-04-28 11:48 28.54806 77.08323 750 ft 33 kts 315°
2026-04-28 11:48 28.54949 77.08147 748 ft 25 kts 295°
2026-04-28 11:48 28.54994 77.07960 751 ft 21 kts 285°
2026-04-28 11:48 28.55032 77.07806 750 ft 20 kts 285°
2026-04-28 11:49 28.55105 77.07710 751 ft 17 kts
2026-04-28 11:49 28.55228 77.07746 750 ft 19 kts 14°
2026-04-28 11:49 28.55361 77.07787 751 ft 20 kts 15°
2026-04-28 11:49 28.55502 77.07828 750 ft 22 kts 14°
2026-04-28 11:50 28.55606 77.07862 749 ft 14 kts 31°
2026-04-28 11:50 28.55632 77.07967 750 ft 15 kts 65°
2026-04-28 11:50 28.55680 77.08057 751 ft 13 kts 60°
2026-04-28 11:50 28.55692 77.08112 751 ft 6 kts 127°
2026-04-28 11:51 28.55648 77.08143 750 ft 8 kts 143°
2026-04-28 11:51 28.55625 77.08166 749 ft 3 kts 140°
2026-04-28 11:51 28.55617 77.08173 749 ft 0 kts 140°